Regional Weather Roundup
Issued by NWS

Home | Current Version | Previous Version | Text Only | Print | Product List | Glossary Off
Versions: 1 2 3 4 5 6 7 8 9 10 11 12 13 14 15 16 17 18 19 20 21 22 23 24 25 26 27 28 29 30 31 32 33 34 35 36 37 38 39 40 41 42 43 44 45 46 47 48 49 50

000
ASUS45 KTFX 240710
RWRMT
MONTANA REGIONAL WEATHER ROUNDUP
NATIONAL WEATHER SERVICE GREAT FALLS MT
100 AM MDT FRI MAR 24 2017

NOTE: "FAIR" INDICATES FEW OR NO CLOUDS BELOW 12000 FEET WITH NO
SIGNIFICANT WEATHER AND/OR OBSTRUCTIONS TO VISIBILITY.

MTZ001>007-043-240800-
WEST OF THE DIVIDE

CITY           SKY/WX    TMP DP  RH WIND       PRES   REMARKS
KALISPELL      CLEAR     28  23  81 CALM      30.05S
MISSOULA       CLEAR     32  25  75 CALM      30.07S
BUTTE          CLEAR     27  21  78 SE6       30.04S WCI  20
MULLAN PASS    CLEAR     25  22  88 S9        29.97F WCI  15
ANACONDA         N/A     28  19  69 SE3       30.04F
DEER LODGE       N/A     27  19  74 CALM      30.07S
EUREKA           N/A     30  25  80 CALM      30.05S
HAMILTON         N/A     34  25  69 S6        30.06S WCI  29
PLAINS           N/A     29  21  71 CALM      30.07
RONAN            N/A     32  26  78 CALM      30.08S
$$

MTZ008-052>055-240800-
SOUTHWEST MONTANA

CITY           SKY/WX    TMP DP  RH WIND       PRES   REMARKS
BOZEMAN        CLEAR     31  25  78 S7        30.04R WCI  24
DILLON         CLEAR     29  22  75 SE7       30.02S WCI  22
W YELLOWSTONE  CLEAR     23  19  86 CALM      30.06S
ENNIS          CLEAR     27  19  74 E5        30.09R
THREE FORKS      N/A     31 -12  15 CALM      30.03R
TWIN BRIDGES     N/A     32  19  58 E6        30.02R WCI  26
$$

MTZ009-010-012-014-046-048-049-054-240800-
EAST SLOPES AND CENTRAL MONTANA

CITY           SKY/WX    TMP DP  RH WIND       PRES   REMARKS
CUT BANK       CLEAR     29  21  72 W12       29.98S WCI  19
GREAT FALLS    CLEAR     32  18  56 E3        30.01R
MALMSTROM AFB  CLEAR     28  21  74 S8        30.02R WCI  20
HELENA         CLEAR     35  23  61 CALM      30.03R
AUGUSTA          N/A     33  19  56 CALM      29.98S
BOWMANS CRNR     N/A     31  20  62 W9        29.98S WCI  23
CHOTEAU          N/A     34  19  55 MISG      30.01S
CONRAD           N/A     23  22  96 S5        30.01R
FAIRFIELD        N/A     31  19  60 W3        29.99R
POWER            N/A     24  17  77 S3        30.00R
RAYNESFORD       N/A     30  19  65 CALM      30.01F
$$

MTZ011-013-016-021-045-047-050-051-240800-
NORTH CENTRAL MONTANA

CITY           SKY/WX    TMP DP  RH WIND       PRES   REMARKS
HAVRE          CLEAR     32  25  75 S9        29.99R WCI  24
LEWISTOWN      CLEAR     29  20  69 SW10      30.02R WCI  20
N BAR RANCH    CLOUDY    34  19  55 VRB6      30.04R WCI  29
CHINOOK          N/A     36  27  69 W6        29.99S WCI  31
DENTON           N/A     32  22  66 S7        29.98S WCI  25
FORT BENTON      N/A     36  21  55 MISG      30.03R
GEYSER           N/A     35  20  55 SW13      30.00S WCI  26
GRASS RANGE      N/A     36  22  55 W8        29.98R WCI  30
STANFORD         N/A     31  20  65 W6        30.01S WCI  25
WINIFRED         N/A     33  23  66 SW7       30.00S WCI  27
$$

MTZ017>020-022>027-061-062-240800-
NORTHEAST MONTANA

CITY           SKY/WX    TMP DP  RH WIND       PRES   REMARKS
GLASGOW        PTCLDY    35  27  72 SE6       29.95R WCI  30
JORDAN           N/A     32  28  85 W6        29.97R WCI  26
SIDNEY         CLEAR     38  34  85 NW7       29.93S
WOLF POINT     CLEAR     34  32  92 CALM      29.96R
MALTA          CLEAR     34  28  80 CALM      29.96R
PLENTYWOOD       N/A     34  30  86 NE8       29.96R WCI  27
POPLAR           N/A     36  32  87 N6        29.96R VSB 1   WCI  31
$$

MTZ028>42-056>058-240800-
SOUTHCENTRAL AND SOUTHEAST MONTANA

CITY           SKY/WX    TMP DP  RH WIND       PRES   REMARKS
BAKER          CLEAR     38  36  92 CALM      29.92R
BILLINGS       CLEAR     42  35  76 W5        29.99R
LIVINGSTON     CLEAR     27  20  75 S5        30.03R
MILES CITY     CLEAR     37  31  78 NW12      29.93F WCI  29
BIG TIMBER     CLEAR     34  23  64 W7        30.05R WCI  28
FORSYTH          N/A     43  39  87 W6        29.96S
HARLOWTON        N/A     32  22  67 W12       30.02R WCI  23
LAUREL           N/A     38  24  57 W2        29.98F
$$

REGIONAL REPORTS...DAKOTAS

CITY           SKY/WX    TMP DP  RH WIND       PRES   REMARKS
WILLISTON      CLEAR     32  30  92 N8        29.95S WCI  25
MINOT          CLEAR     32  28  85 N13       29.91F WCI  22
DICKINSON      CLEAR     32  30  92 S7        29.90R WCI  26
BEACH            N/A    N/A N/A N/A MISG        N/A
TIOGA            N/A     30  30 100 CALM      29.95F FOG
WATFORD CITY     N/A     32  32 100 N8        29.91F WCI  25
BISMARCK       CLEAR     33  31  92 E5        29.97R
GRAND FORKS    CLEAR     33  32  96 N8        29.92R WCI  26
FARGO          CLOUDY    34  34 100 CALM      29.92R FOG
BUFFALO SD       N/A     37  35  92 W10       29.89R WCI  30
RAPID CITY     CLOUDY    41  37  86 N13       29.96R
$$

REGIONAL REPORTS...WYOMING/IDAHO/WASHINGTON

CITY           SKY/WX    TMP DP  RH WIND       PRES   REMARKS
GILLETTE       CLEAR     37  35  92 S3        29.99R
SHERIDAN       CLEAR     38  32  79 E6        29.98S
BUFFALO WY     CLEAR     38  28  67 NW10      29.99R WCI  31
CODY           PTCLDY    39  32  76 SW6       30.03R
YELLOWSTONE LA   N/A     22  19  89 CALM      30.08R
IDAHO FALLS    CLEAR     39  25  57 S13       30.08R WCI  31
SALMON         CLEAR     30  19  64 CALM      30.03S
BOISE          PTCLDY    46  25  43 SE12      30.05R
SPOKANE        MOCLDY    37  28  70 E3        29.98F
$$

REGIONAL REPORTS...ALBERTA

CITY           SKY/WX    TMP DP  RH WIND       PRES   REMARKS
EDMONTON       PTCLDY    28  23  80 S7        29.96S WCI  21
CALGARY        MOCLDY    32  23  69 SW3       29.95F
LETHBRIDGE     CLEAR     30  23  74 W8        29.97S WCI  23
MEDICINE HAT   CLEAR     34  28  80 NE7       29.95R WCI  28
WATERTON GATE    N/A     36  18  48 SW15G25     N/A  WCI  26
MILK RIVER       N/A     28  23  80 NW10        N/A  WCI  19
$$

REGIONAL REPORTS...SASKATCHEWAN

CITY           SKY/WX    TMP DP  RH WIND       PRES   REMARKS
SWIFT CURRENT  CLEAR     28  27  93 E9        29.96R WCI  20
REGINA         CLEAR     28  25  86 NE9       30.02R WCI  20
SASKATOON      CLEAR     23  19  86 E6        30.07R WCI  16
VAL MARIE        N/A     27  25  93 NE5         N/A
ROCKGLEN         N/A     32  28  86 NE5         N/A
ASSINIBOIA       N/A      9   7  92 S5          N/A
$$



USA.gov is the U.S. government's official web portal to all federal, state and local government web resources and services.